Date String (YYYY-MM-DD hh:mm:ss) UTC,Instrument flags,absolute air pressure of the measurement (hPa),sample flow rate (lpm),inlet stack bypass flow (lpm),air temperature of the measurement (°C),ambient temperature measured by the external sensor (°C),aerosol sample conditioner tube jacket temperature (°C),OPC LED temperature (°C),internal box temperature (°C),relative humidity of the measurement (%),span deviation,mass concentration of particles derived from Lorenz-Mie calculation of OPC scattering (μg/m³),mass concentration of particles derived from Lorenz-Mie calculation of OPC scattering (μg/m³),mass concentration of particles derived from Lorenz-Mie calculation of OPC scattering (μg/m³)
DateTimeUTC,F1_M11,P_M11,Q1_M11,Q2_M11,T1_M11,T2_M11,T3_M11,T4_M11,T5_M11,U1_M11,ZSPAN_M11,X2_M11,X0_M11,X1_M11
2023-06-04 19:00:00,SystemResetWarning,0834.7,5.00,000.00,030.5,029.0,000.0,038.9,032.1,29.8,0000.0,0001.39,0002.96,0000.98
2023-06-04 19:01:00,SystemResetWarning,0834.7,5.00,000.00,030.5,029.0,000.0,038.9,032.0,29.7,0000.0,0001.37,0002.95,0000.97
2023-06-04 19:02:00,SystemResetWarning,0834.7,5.00,000.00,030.5,029.0,000.0,038.9,032.0,29.5,0000.0,0001.39,0003.01,0000.97
2023-06-04 19:03:00,SystemResetWarning,0834.7,4.99,000.00,030.5,029.0,000.0,038.9,032.0,29.4,0000.0,0001.35,0002.97,0000.94
2023-06-04 19:04:00,SystemResetWarning,0834.7,5.00,000.00,030.5,029.0,000.0,038.9,032.1,29.6,0000.0,0001.31,0002.91,0000.93
2023-06-04 19:05:00,SystemResetWarning,0834.7,5.01,000.00,030.5,029.0,000.0,038.9,032.1,29.4,0000.0,0001.30,0002.94,0000.91
2023-06-04 19:06:00,SystemResetWarning,0834.7,5.00,000.00,030.5,029.0,000.0,038.9,032.1,29.2,0000.0,0001.25,0002.86,0000.88
2023-06-04 19:07:00,SystemResetWarning,0834.9,5.00,000.00,030.5,029.0,000.0,038.9,032.1,29.0,0000.0,0001.21,0002.77,0000.87
2023-06-04 19:08:00,SystemResetWarning,0834.7,4.99,000.00,030.5,029.0,000.0,038.9,032.1,29.3,0000.0,0001.15,0002.65,0000.85
2023-06-04 19:09:00,SystemResetWarning,0835.0,4.99,000.00,030.5,029.0,000.0,038.9,032.1,28.9,0000.0,0001.13,0002.07,0000.85
2023-06-04 19:10:00,SystemResetWarning,0835.1,5.00,000.00,030.5,029.0,000.0,038.9,032.1,29.1,0000.0,0001.12,0001.86,0000.85
2023-06-04 19:11:00,SystemResetWarning,0834.8,5.00,000.00,030.5,029.0,000.0,038.9,032.1,29.1,0000.0,0001.12,0001.84,0000.84
2023-06-04 19:12:00,SystemResetWarning,0834.8,5.00,000.00,030.5,029.0,000.0,038.9,032.1,28.3,0000.0,0001.13,0001.81,0000.85
2023-06-04 19:13:00,SystemResetWarning,0834.8,5.01,000.00,030.5,029.0,000.0,038.9,032.1,28.7,0000.0,0001.12,0001.78,0000.85
2023-06-04 19:14:00,SystemResetWarning,0834.7,5.00,000.00,030.5,029.0,000.0,038.9,032.1,27.6,0000.0,0001.12,0001.76,0000.86
2023-06-04 19:15:00,SystemResetWarning,0834.8,5.00,000.00,030.5,029.0,000.0,038.9,032.1,28.3,0000.0,0001.14,0001.74,0000.88
2023-06-04 19:16:00,SystemResetWarning,0834.7,5.00,000.00,030.5,029.0,000.0,038.9,032.1,29.0,0000.0,0001.13,0001.72,0000.89
2023-06-04 19:17:00,SystemResetWarning,0834.7,4.99,000.00,030.5,029.0,000.0,038.9,032.1,29.0,0000.0,0001.13,0001.74,0000.90
2023-06-04 19:18:00,SystemResetWarning,0834.8,5.00,000.00,030.5,029.0,000.0,038.9,032.1,29.6,0000.0,0001.16,0001.86,0000.91
2023-06-04 19:19:00,SystemResetWarning,0834.8,5.00,000.00,030.5,029.0,000.0,038.9,032.1,29.7,0000.0,0001.21,0002.28,0000.92
2023-06-04 19:20:00,SystemResetWarning,0834.8,5.00,000.00,030.5,029.0,000.0,038.9,032.1,29.9,0000.0,0001.23,0002.29,0000.93
2023-06-04 19:21:00,SystemResetWarning,0834.8,5.00,000.00,030.5,029.0,000.0,038.9,032.1,30.4,0000.0,0001.25,0002.31,0000.94
2023-06-04 19:22:00,SystemResetWarning,0835.1,5.00,000.00,030.5,029.0,000.0,038.9,032.1,30.7,0000.0,0001.31,0002.44,0000.96
2023-06-04 19:23:00,SystemResetWarning,0835.1,5.01,000.00,030.5,029.0,000.0,038.9,032.1,30.4,0000.0,0001.33,0002.49,0000.96
2023-06-04 19:24:00,SystemResetWarning,0835.0,5.00,000.00,030.5,029.0,000.0,038.9,032.1,30.2,0000.0,0001.33,0002.48,0000.96
2023-06-04 19:25:00,SystemResetWarning,0834.9,5.00,000.00,030.5,029.0,000.0,038.9,032.1,30.3,0000.0,0001.36,0002.57,0000.97
2023-06-04 19:26:00,SystemResetWarning,0834.9,4.99,000.00,030.5,029.0,000.0,038.9,032.1,30.5,0000.0,0001.35,0002.54,0000.97
2023-06-04 19:27:00,SystemResetWarning,0835.1,4.99,000.00,030.5,029.0,000.0,038.9,032.1,30.8,0000.0,0001.40,0002.64,0000.98
2023-06-04 19:28:00,SystemResetWarning,0834.8,5.00,000.00,030.5,029.0,000.0,038.9,032.1,30.8,0000.0,0001.45,0002.79,0001.01
2023-06-04 19:29:00,SystemResetWarning,0834.8,5.00,000.00,030.5,029.0,000.0,038.9,032.1,30.7,0000.0,0001.50,0002.93,0001.03
2023-06-04 19:30:00,SystemResetWarning,0834.8,5.00,000.00,030.5,029.0,000.0,038.9,032.1,30.8,0000.0,0001.51,0002.62,0001.04
2023-06-04 19:31:00,SystemResetWarning,0834.7,5.00,000.00,030.5,029.0,000.0,038.9,032.1,31.0,0000.0,0001.55,0002.74,0001.05
2023-06-04 19:32:00,SystemResetWarning,0835.0,5.00,000.00,030.5,029.0,000.0,038.9,032.1,31.1,0000.0,0001.58,0002.86,0001.06
2023-06-04 19:33:00,SystemResetWarning,0835.0,5.01,000.00,030.5,029.0,000.0,038.9,032.1,30.8,0000.0,0001.57,0002.91,0001.06
2023-06-04 19:34:00,SystemResetWarning,0835.4,4.99,000.00,030.5,029.0,000.0,038.9,032.1,30.7,0000.0,0001.63,0003.25,0001.08
2023-06-04 19:35:00,SystemResetWarning,0835.4,4.99,000.00,030.5,029.0,000.0,038.9,032.1,30.7,0000.0,0001.67,0005.19,0001.10
2023-06-04 19:36:00,SystemResetWarning,0835.4,5.00,000.00,030.5,029.0,000.0,038.9,032.1,31.1,0000.0,0001.73,0005.38,0001.11
2023-06-04 19:37:00,SystemResetWarning,0835.3,5.00,000.00,030.5,029.0,000.0,038.9,032.1,31.1,0000.0,0001.80,0005.53,0001.13
2023-06-04 19:38:00,SystemResetWarning,0835.4,5.01,000.00,030.5,029.0,000.0,038.9,032.1,30.8,0000.0,0001.81,0005.52,0001.14
2023-06-04 19:39:00,SystemResetWarning,0835.4,5.00,000.00,030.5,029.0,000.0,038.9,032.1,30.8,0000.0,0001.77,0005.55,0001.12
2023-06-04 19:40:00,SystemResetWarning,0835.3,5.01,000.00,030.5,029.0,000.0,038.9,032.1,30.7,0000.0,0001.78,0007.23,0001.12
2023-06-04 19:41:00,SystemResetWarning,0835.4,5.00,000.00,030.5,029.0,000.0,038.9,032.1,30.9,0000.0,0001.73,0007.51,0001.11
2023-06-04 19:42:00,SystemResetWarning,0835.3,5.00,000.00,030.5,029.0,000.0,038.9,032.1,30.8,0000.0,0001.68,0007.74,0001.10
2023-06-04 19:43:00,SystemResetWarning,0835.4,5.01,000.00,030.5,029.0,000.0,038.9,032.1,31.0,0000.0,0001.70,0007.95,0001.10
2023-06-04 19:44:00,SystemResetWarning,0835.4,4.99,000.00,030.5,029.0,000.0,038.9,032.1,31.3,0000.0,0001.75,0008.02,0001.10
2023-06-04 19:45:00,SystemResetWarning,0835.3,5.00,000.00,030.5,029.0,000.0,038.9,032.1,31.2,0000.0,0001.70,0007.92,0001.10
2023-06-04 19:46:00,SystemResetWarning,0835.4,5.00,000.00,030.5,029.0,000.0,038.9,032.1,31.2,0000.0,0001.67,0006.79,0001.08
2023-06-04 19:47:00,SystemResetWarning,0835.3,5.01,000.00,030.5,029.0,000.0,038.9,032.1,31.1,0000.0,0001.66,0006.30,0001.09
2023-06-04 19:48:00,SystemResetWarning,0835.2,5.01,000.00,030.5,029.0,000.0,039.0,032.1,30.8,0000.0,0001.65,0006.43,0001.08
2023-06-04 19:49:00,SystemResetWarning,0835.4,4.99,000.00,030.5,029.0,000.0,039.0,032.1,30.4,0000.0,0001.65,0006.91,0001.08
2023-06-04 19:50:00,SystemResetWarning,0835.2,4.99,000.00,030.5,029.0,000.0,039.0,032.1,30.0,0000.0,0001.67,0007.05,0001.09
2023-06-04 19:51:00,SystemResetWarning,0835.3,5.00,000.00,030.5,029.0,000.0,039.0,032.1,29.6,0000.0,0001.67,0005.70,0001.11
2023-06-04 19:52:00,SystemResetWarning,0835.3,4.99,000.00,030.5,029.0,000.0,039.0,032.1,29.4,0000.0,0001.69,0004.65,0001.12
2023-06-04 19:53:00,SystemResetWarning,0835.3,5.00,000.00,030.5,029.0,000.0,039.0,032.2,29.5,0000.0,0001.73,0004.28,0001.14
2023-06-04 19:54:00,SystemResetWarning,0835.4,4.99,000.00,030.5,029.0,000.0,039.0,032.2,29.1,0000.0,0001.78,0004.79,0001.16
2023-06-04 19:55:00,SystemResetWarning,0835.3,5.00,000.00,030.5,029.0,000.0,039.0,032.2,29.1,0000.0,0001.73,0004.49,0001.16
2023-06-04 19:56:00,SystemResetWarning,0835.4,5.00,000.00,030.5,029.1,000.0,039.0,032.2,29.0,0000.0,0001.67,0004.33,0001.15
2023-06-04 19:57:00,SystemResetWarning,0835.4,5.01,000.00,030.6,029.1,000.0,039.0,032.2,29.1,0000.0,0001.68,0004.60,0001.16
2023-06-04 19:58:00,SystemResetWarning,0835.2,5.00,000.00,030.6,029.0,000.0,039.0,032.2,29.3,0000.0,0001.65,0004.50,0001.17
2023-06-04 19:59:00,SystemResetWarning,0834.9,4.99,000.00,030.6,029.0,000.0,039.0,032.2,29.5,0000.0,0001.64,0004.41,0001.19
